Regional Weather Roundup
Issued by NWS Upton, NY

Home | Current Version | Previous Version | Text Only | Print | Product List | Glossary On
Versions: 1 2 3 4 5 6 7 8 9 10 11 12 13 14 15 16 17 18 19 20 21 22 23 24 25 26 27 28 29 30 31 32 33 34 35 36 37 38 39 40 41 42 43 44 45 46 47 48 49 50
000
ASUS41 KOKX 300708
RWROKX

REGIONAL WEATHER ROUNDUP
NATIONAL WEATHER SERVICE NEW YORK NY
300 AM EDT SUN APR 30 2017

NOTE: "FAIR" INDICATES FEW OR NO CLOUDS BELOW 12,000 FEET WITH NO
SIGNIFICANT WEATHER AND/OR OBSTRUCTIONS TO VISIBILITY.

NYZ071-072-176-178-NJZ106-104-300800-
NEW YORK CITY METRO AREA

CITY           SKY/WX    TMP DP  RH WIND       PRES   REMARKS
Central Park   CLOUDY    65  44  46 VRB5      30.16R
Wall St Helipt SUNNY     64  46  52 VRB3      30.14R
Bronx Bot Gard   N/A     64  45  48 NW3       30.15S
LaGuardia APRT CLOUDY    66  46  48 NW8       30.13R
Kennedy INTL   MOCLDY    66  48  52 N10       30.14R
Breezy Point     N/A     64 N/A N/A NW7         N/A
Newark/Liberty MOCLDY    63  46  54 N8        30.13R
Teterboro      CLOUDY    64  44  48 N6        30.13R
$$

NYZ177-179-078>081-300800-
LONG ISLAND NEW YORK

CITY           SKY/WX    TMP DP  RH WIND       PRES   REMARKS
Jones Beach      N/A     64 N/A N/A N8          N/A
Matinecock PT    N/A     64 N/A N/A NW5         N/A
Farmingdale    CLOUDY    66  51  58 N8        30.13R
MacArthur/ISP  PTCLDY    63  53  70 N7        30.13R
Shirley        NOT AVBL
Mt Sinai Harb    N/A     54 N/A N/A N2          N/A
Westhampton    MOCLDY    60  50  69 N7        30.15R
East Hampton     N/A     61  46  56 N7        30.13R
Montauk          N/A     55  45  68 NW5       30.14R
$$

NYZ052-065-067-300800-
HUDSON VALLEY

CITY           SKY/WX    TMP DP  RH WIND       PRES   REMARKS
White Plains   CLEAR     60  47  61 N3        30.13R
Larchmont Harb   N/A     63 N/A N/A NW5         N/A
Croton O-T Hud   N/A     61 N/A N/A N3          N/A
Newburgh       CLEAR     55  46  71 E10       30.16F
Montgomery     CLEAR     56  45  66 N7        30.15R
Poughkeepsie   CLEAR     54  39  57 NE9       30.15F
Albany         CLEAR     46  34  62 N8        30.23R
$$

NJZ001-105-106-008-010-013-015-019>022-104-300800-
NEW JERSEY

CITY           SKY/WX    TMP DP  RH WIND       PRES   REMARKS
Newark/Liberty MOCLDY    63  46  54 N8        30.13R
Teterboro      CLOUDY    64  44  48 N6        30.13R
Caldwell       PTCLDY    63  42  46 CALM      30.15R
Somerville     CLEAR     64  48  56 N3        30.12S
Linden           N/A     65  45  49 NE5       30.14R
Perth Amboy      N/A     64 N/A N/A N6          N/A
Sussex         CLEAR     56  44  64 CALM      30.18R
Andover          N/A     59  43  55 VRB6      30.16S
Trenton        PTCLDY    64  56  75 NE5       30.13S
Millville      CLOUDY    71  63  75 E7        30.10R
Atlantic City  PTCLDY    69  59  70 NE5       30.11R
Wrightstown    CLEAR     64  58  79 NE5       30.11R
Toms River     CLEAR     63  59  87 CALM      30.13S
Belmar         CLOUDY    65  56  72 N6        30.14S
$$

PAZ047>061-062-071-300800-
EASTERN PENNSYLVANIA

CITY           SKY/WX    TMP DP  RH WIND       PRES   REMARKS
Philadelphia   PTCLDY    68  57  68 NE10      30.12S
Allentown      CLEAR     58  52  80 NE6       30.14S
Scranton       CLEAR     55  38  52 NE7       30.19R
$$

CTZ002-004>006-009-010-012-RIZ004-006-007-MAZ004-011-015-300800-
SOUTHERN NEW ENGLAND
 IN CT

CITY           SKY/WX    TMP DP  RH WIND       PRES   REMARKS
Bradley INTL   CLEAR     55  35  47 NW8       30.16S
Hartford       CLEAR     57  35  43 N9        30.16S
Danbury        CLEAR     56  40  55 N10       30.16R
Wtrbury/Oxford CLEAR     55  34  44 N15       30.16R
Bridgeport     CLEAR     64  41  42 N10       30.13S
Meriden        CLEAR     60  34  37 N8G17     30.16R
New Haven      CLEAR     61  38  42 N14G22    30.14R
Chester          N/A     59  36  41 N13       30.14S
Groton         CLEAR     61  39  44 N13G20    30.12R
Wilimantic     CLEAR     59  38  45 N6        30.16R

 IN RI

CITY           SKY/WX    TMP DP  RH WIND       PRES   REMARKS
Providence     CLEAR     61  39  44 N12       30.13R
Block Island   CLEAR     59  42  53 N10       30.13R
Westerly       CLEAR     62  40  44 N12       30.12S
 IN MA

CITY           SKY/WX    TMP DP  RH WIND       PRES   REMARKS
Boston         CLEAR     60  36  40 NW18G25   30.14R
Worcester      CLEAR     52  36  54 NW9       30.14S
Westfield      CLEAR     53  36  52 NW9       30.16S
Provincetown   CLOUDY    52  45  77 N8        30.13R
Nantucket      CLOUDY    62  43  49 NW12      30.09R
$$

ANZ330-335-338-340-345-350-353-355-300800-
COASTAL MARINE OBSERVATIONS


STATION/POSITION TIME  SKY/WX   TEMP    WIND        PRES    VSBY  WAVE
                                AIR SEA DIR/SP/G                  HT/PER
                 (UTC)          (F)     (DEG/KT/KT) (MB)    (MI)  (FT/S)
NY HARB ENTRANCE 0550            58 50   10/  4/  6 1020.1          3/ 7
20 S FIRE ISLAND 0650            56 50  330/  6/  8 1019.7          4/ 6
GREAT SOUTH BAY  0630            65 62  360/  6/  6   N/A
23 SSW MONTAUK P 0550            57 48              1019.5          3/ 8
15 E BARNEGAT LI 0630               55                N/A           4/ 7
HUDSON CANYON    0550            54 49  300/  6/  6 1020.1          4/ 7
KINGS POINT      0648               53   40/  7/  8 1020.4
EXECUTION ROCKS  NOT AVBL
CENTRAL LI SOUND 0630            58     350/  8/ 10   N/A           1
EASTERN LI SOUND NOT AVBL
ROBBINS REEF     0642                   340/ 10/ 13 1020.8
$$


>>>>>>>>>>>>>>>>>>>>>>>>>>>> KEY <<<<<<<<<<<<<<<<<<<<<<<<<<<
>                                                          <
>     SKY/WX - Sky Condition/Present Weather               <
>     TMP    - Temperature in Fahrenheit                   <
>     DP     - Dew Point in Fahrenheit                     <
>     RH     - Relative Humidity in Percent                <
>     WIND   - Direction (from) and Speed in MPH           <
>     PRES   - Mean Sea Level Pressure (inches of Hg)      <
>     WCI    - Wind Chill Index                            <
>     VSB    - VISIBILITY IN MILES                         <
>     HX     - HEAT INDEX                                  <
>     TC     - TEMPERATURE IN CELSIUS                      <
>     VRB    - VARIABLE WIND DIRECTION                     <
>                                                          <
>>>>>>>>>>>>>>>>>>>>>>>>>>>> KEY <<<<<<<<<<<<<<<<<<<<<<<<<<<



USA.gov is the U.S. government's official web portal to all federal, state and local government web resources and services.